www.pogodaiklimat.ru

Погода и климат >> Архив погоды >> Китай >> Shisan Jianfang


ПОГОДА в Shisan Jianfang

  • Прогноз погоды в Shisan Jianfang
  • Монитор погоды в Shisan Jianfang
  • Климат города

АРХИВ ПОГОДЫ в Shisan Jianfang

Время (UTC), дата Ветер
(напр.,м/с)
 
Видим.   Явления Облачность Т
(С)
Тd
(С)
f
(%)
Тe
(С)
Тes
(С)
Комфортность P
(гПа)
Po
(гПа)
Тmin
(С)
Tmax
(С)
R
(мм)
R24
(мм)
S
(см)
21 18.04 С 10
{23}
30 км ?/? +11.1 -0.4 45 +8 +8 1019.5 1020.0
00 19.04 С 6
{17}
30 км ясно +10.8 -1.3 43 +8 +8 1020.2 1020.2
03 19.04 С 12 30 км ясно +16.0 -5.1 23 +14 +14 1020.1 1020.0
06 19.04 С 9
{19}
30 км 1/1
[]
+18.8 -6.0 18 +18 +19 1018.6 1019.0 +10.0
09 19.04 С 10
{19}
30 км ясно +19.9 -7.5 15 +19 +19 1018.3 1018.0
12 19.04 С 11
{19}
30 км ясно +17.9 -5.4 20 +17 +17 1019.1 935.7
18 19.04 СВ 6 30 км ?/? +12.0 -6.4 27 +10 +10 1019.5 1020.0 +20.7
21 19.04 В 5 30 км ?/? +11.0 -14.6 15 +9 +9 1021.0 1021.0
00 20.04 В 3 30 км 8/8
[]
+11.0 -15.5 14 +10 +10 1022.6 1023.0
03 20.04 ЮВ 11 30 км 5/5
[]
+15.3 -17.4 9 +13 +13 1022.6 1023.0
06 20.04 Ю 7 30 км 4/4
[]
+19.0 -17.6 7 +18 +21 1019.9 1020.0 +9.9
09 20.04 В 1 30 км 6/6
[]
+20.7 -14.7 8 +21 +25 комфорт 1017.1 1017.0
12 20.04 ЮВ 3 30 км 3/3
[]
+20.3 -15.0 8 +20 +20 1015.8 1016.0
18 20.04 С 5 30 км ?/? +12.1 -13.8 15 +10 +10 1015.9 1016.0 +21.6
21 20.04 С 5 30 км ?/? +9.8 -14.1 17 +8 +8 1015.3 1015.0
00 21.04 С 6 30 км ясно +11.6 -13.4 16 +9 +10 1015.2 1015.2
03 21.04 Ю 3 30 км ясно +19.8 -17.0 7 +19 +28 1015.1 1015.0
06 21.04 Ю 5 30 км 3/3
[]
+23.5 -16.2 6 +21 +27 комфорт 1012.7 1013.0 +9.3
09 21.04 С 4 30 км 3/3 1500 м
[]
+25.4 -8.4 10 +23 +27 комфорт 1009.9 1010.0
12 21.04 С 2 30 км ясно +24.8 -11.7 8 +22 +22 комфорт 1008.2 1008.0
18 21.04 С 7 30 км ?/? +16.7 -7.7 18 +16 +16 1009.2 928.2 +25.8
21 21.04 С 7 30 км ?/? +16.0 -6.9 20 +15 +15 1008.8 1009.0
00 22.04 СВ 7 30 км 1/1
[]
+16.2 -8.1 18 +15 +15 1010.0 1023.8
03 22.04 С 8 30 км 5/5
[]
+23.5 -8.6 11 +21 +22 комфорт 1010.5 1011.0
06 22.04 В 3 30 км 8/8
[]
+26.1 -6.6 11 +23 +26 комфорт 1009.1 1009.0 +14.6
09 22.04 СЗ 3 30 км 8/8 1500 м
[]
+26.3 -6.5 11 +23 +25 комфорт 1007.1 1007.0
12 22.04 С 8 30 км 5/5
[]
+25.3 -6.1 12 +23 +23 комфорт 1007.0 1007.0
18 22.04 С 12 30 км ?/? +20.4 -6.2 16 +19 +19 1008.2 1008.0 +27.5
21 22.04 С 14
{19}
30 км ?/? +19.1 -1.9 24 +18 +18 1009.0 1009.0
00 23.04 С 18
{23}
30 км 9/9 1500 м
[]
+17.6 +2.4 36 +16 +16 1010.7 1011.0
03 23.04 С 14
{24}
30 км 9/9 1500 м
[]
+19.1 +4.5 38 +18 +18 1013.4 1013.0
06 23.04 С 17
{26}
30 км 9/9 1500 м
[]
+20.2 +4.7 36 +20 +20 1012.9 1013.0 +17.3
09 23.04 С 20
{28}
30 км 9/9 1500 м
[]
+21.1 +3.8 32 +21 +21 комфорт 1010.4 1010.0
12 23.04 С 18
{28}
30 км 9/9 1500 м
[]
+18.2 +4.0 39 +16 +16 1012.4 1012.0
18 23.04 С 16
{25}
30 км ?/? +16.0 +5.3 49 +13 +13 1015.0 1015.0 +21.5
21 23.04 С 15
{25}
30 км ?/? +15.4 +4.5 48 +13 +13 1014.2 1014.0
00 24.04 С 11
{25}
30 км 4/4 1500 м
[]
+15.6 +2.1 40 +13 +13 1017.4 1017.0
03 24.04 С 13
{24}
30 км 1/1 1500 м
[]
+18.7 +1.2 31 +17 +17 1018.6 1019.0
06 24.04 С 13
{24}
30 км 1/1 1500 м
[]
+22.8 -1.3 20 +22 +22 комфорт 1016.9 1017.8 +15.2
09 24.04 С 14
{24}
30 км ясно +23.7 -2.8 17 +22 +22 комфорт 1015.5 1016.0
12 24.04 С 16
{22}
30 км ясно +22.1 -4.1 17 +21 +21 комфорт 1015.6 1016.0
18 24.04 С 10
{18}
30 км ?/? +17.6 -1.6 27 +16 +16 1016.7 1017.0 +24.2
21 24.04 С 9 30 км ?/? +15.6 -2.8 28 +14 +14 1017.0 1017.0
00 25.04 С 6 30 км 6/6 1500 м
[]
+16.6 -1.5 29 +16 +16 1018.2 1018.0
03 25.04 С 10 30 км 6/6 1500 м
[]
+21.3 -1.9 21 +21 +21 комфорт 1018.0 1018.0
06 25.04 С 7 30 км 8/8 1500 м
[]
+24.2 -4.0 15 +22 +23 комфорт 1015.5 1016.0 +15.4
09 25.04 СВ 4 30 км 6/6 1500 м
[]
+24.9 -2.6 16 +23 +26 комфорт 1013.0 1013.0
12 25.04 СВ 5 30 км 9/9 1500 м
[]
+23.5 -1.4 19 +22 +22 комфорт 1012.0 1012.0

 

Местоположение метеостанции Shisan Jianfang (Китай): широта 43.22 долгота 91.73 высота над уровнем моря 792 м.

В архиве по умолчанию представлена погода в Shisan Jianfang за последнюю неделю. Архивные данные за месяц целиком и за предыдущие месяцы, начиная с января 2011 года, Вы можете получить, выбрав интересующий диапазон дат из раскрывающегося списка и нажав кнопку "Ввод!".

Внимание! Время в таблицах - всемирное. Для получения местного времени необходимо прибавить поправку, которая в Shisan Jianfang равна 8 ч.

Смотрите также архив погоды в соседних городах и на ближайших метеорологических станциях:

Погода в Hami (Китай) (152 км)
Погода в Qitai (Китай) (195 км)
Погода в Turpan (Китай) (208 км)
Погода в Beita Shan (Китай) (258 км)
Погода в Naomaohu (Китай) (278 км)
Погода в Baitag (Монголия) (323 км)
Погода в Urumqi (Китай) (335 км)
Погода в Tonhil (Монголия) (385 км)
Погода в Jargalant (Монголия) (415 км)
Погода в Dunhuang (Китай) (420 км)

Пояснения к столбцам:

Ветер - указаны скорость ветра в м/с - средняя за 10 мин, порывы в срок и между сроками (в фигурных скобках) и направление, откуда дует ветер: С - северный, СВ - северо-восточный, В - восточный, ЮВ - юго-восточный, Ю - южный, ЮЗ - юго-западный, З - западный, СЗ - северо-западный.
Видимость - горизонтальная дальность видимости в метрах или километрах. При видимости от 1 до 10 км при отсутствии осадков обычно наблюдается дымка, при ухудшении видимости до 1 км и менее - туман. В сухую погоду видимость может ухудшаться дымом, пылью или мглою.
Явления - указаны атмосферные явления, наблюдавшиеся в срок или в последний час перед сроком; фигурными скобками обозначены явления, наблюдавшиеся между сроками (за 1-3 часа до срока); квадратными скобками обозначены град или гололедные отложения с указанием их диаметра в мм.
Облачность - указаны через наклонную черту общая и нижняя облачность в баллах и высота нижней границы облаков в метрах; квадратными скобками обозначены формы облаков: Ci - перистые, Cs - перисто-слоистые, Cc - перисто-кучевые, Ac - высококучевые, As - высокослоистые, Sc - слоисто-кучевые, Ns - слоисто-дождевые, Cu - кучевые, Cb - кучево-дождевые. Подробнее классификацию облаков см. в Атласе облаков (PDF).
T - Температура воздуха - температура, измеренная на высоте 2 м над землей.
Td - Температура точки росы - температура, при понижении до которой содержащийся в воздухе водяной пар достигнет насыщения.
f - Относительная влажность воздуха - влажноcть воздуха, измеренная на высоте 2 м над землей.
Te - Эффективная температура - температура, которую ощущает одетый по сезону человек в тени. Характеристика душности погоды. При расчете учитывается влияние влажности воздуха и скорости ветра на теплоощущения человека.
Tes - Эффективная температура на солнце - температура, которую ощущает человек, с поправкой на солнечный нагрев. Характеристика знойности погоды. Зависит от высоты солнца над горизонтом, облачности и скорости ветра. Ночью, в пасмурную погоду, а также при ветре 12 м/с и более поправка равна нулю.
P - Атмосферное давление - приведенное к уровню моря атмосферное давление.
Po - Атмосферное давление - измеренное на уровне метеостанции атмосферное давление.
Tmin - Минимальная температура - минимум температуры воздуха на высоте 2 м над землей.
Tmax - Максимальная температура - максимум температуры воздуха на высоте 2 м над землей.
R - Количество осадков - Количество выпавших осадков за период времени, мм. При наведении курсора мыши на число - период времени, за который выпало указанное количество осадков.
R24 - Количество осадков - Количество выпавших осадков за 24 часа, мм.
S - Снежный покров - Высота снежного покрова, см. При наведении курсора мыши на число - состояние снежного покрова и степень покрытия местности в баллах.